When you browse on this site, cookies collect data to enhance your experience and personalize the content and advertising you see.
Visit our Privacy Policy to learn more. By continuing to use the site, you agree to this use of cookies and data.
  • In Portugal
  • List of Countries
  • For 7 days
  • Water Temperature
  • Weather Map
  • Weather Widgets
  • user-avatar
    Login

    Hourly Weather Tbilisi

    Today, 2 June, Tuesday

    Time Temperature Precipitation Wind Pressure Humidity
    00:00 +19°C° 0 mm 1 mps 698 mmHg 68%
    01:00 +19°C° 0 mm 1 mps 698 mmHg 68%
    02:00 +18°C° 0 mm 1 mps 698 mmHg 69%
    03:00 +18°C° 0 mm 1 mps 697 mmHg 69%
    04:00 +19°C° 0 mm 1 mps 697 mmHg 69%
    05:00 +19°C° 0 mm 1 mps 697 mmHg 68%
    06:00 +20°C° 0 mm 1 mps 697 mmHg 68%
    07:00 +22°C° 0 mm 1 mps 697 mmHg 62%
    08:00 +24°C° 0 mm 1 mps 697 mmHg 56%
    09:00 +26°C° 0 mm 1 mps 697 mmHg 50%
    10:00 +26°C° 0 mm 1 mps 697 mmHg 47%
    11:00 +27°C° 0 mm 1 mps 697 mmHg 44%
    12:00 +28°C° 0 mm 2 mps 697 mmHg 41%
    13:00 +27°C° 0.4 mm 2 mps 697 mmHg 46%
    14:00 +26°C° 0.4 mm 2 mps 697 mmHg 50%
    15:00 +25°C° 0.4 mm 2 mps 696 mmHg 55%
    16:00 +25°C° 0.2 mm 2 mps 696 mmHg 57%
    17:00 +25°C° 0.2 mm 2 mps 696 mmHg 59%
    18:00 +25°C° 0.2 mm 2 mps 696 mmHg 60%
    19:00 +23°C° 0.1 mm 2 mps 696 mmHg 65%
    20:00 +22°C° 0.1 mm 1 mps 696 mmHg 69%
    21:00 +20°C° 0.1 mm 1 mps 696 mmHg 73%
    22:00 +19°C° 0.1 mm 1 mps 696 mmHg 74%
    23:00 +18°C° 0.1 mm 2 mps 696 mmHg 74%

    Tomorrow, 3 June, Wednesday

    Time Temperature Precipitation Wind Pressure Humidity
    00:00 +17°C° 0.1 mm 2 mps 695 mmHg 75%
    01:00 +17°C° 0.1 mm 2 mps 695 mmHg 77%
    02:00 +16°C° 0.1 mm 2 mps 695 mmHg 78%
    03:00 +16°C° 0.1 mm 2 mps 695 mmHg 80%
    04:00 +16°C° 0 mm 2 mps 695 mmHg 80%
    05:00 +17°C° 0 mm 2 mps 695 mmHg 80%
    06:00 +17°C° 0 mm 2 mps 695 mmHg 79%
    07:00 +19°C° 0 mm 2 mps 696 mmHg 71%
    08:00 +23°C° 0 mm 2 mps 696 mmHg 62%
    09:00 +25°C° 0 mm 2 mps 696 mmHg 53%
    10:00 +27°C° 0 mm 1 mps 696 mmHg 46%
    11:00 +29°C° 0 mm 1 mps 696 mmHg 39%
    12:00 +30°C° 0 mm 1 mps 697 mmHg 32%
    13:00 +28°C° 1 mm 2 mps 696 mmHg 46%
    14:00 +25°C° 1 mm 2 mps 696 mmHg 59%
    15:00 +22°C° 1 mm 3 mps 695 mmHg 72%
    16:00 +22°C° 0.4 mm 3 mps 696 mmHg 70%
    17:00 +23°C° 0.4 mm 2 mps 696 mmHg 68%
    18:00 +23°C° 0.4 mm 2 mps 696 mmHg 66%
    19:00 +20°C° 0.7 mm 2 mps 696 mmHg 72%
    20:00 +19°C° 0.7 mm 2 mps 697 mmHg 77%
    21:00 +17°C° 0.7 mm 2 mps 697 mmHg 83%
    22:00 +17°C° 0.4 mm 3 mps 698 mmHg 85%
    23:00 +16°C° 0.4 mm 3 mps 698 mmHg 86%

    Day after tomorrow, 4 June, Thursday

    Time Temperature Precipitation Wind Pressure Humidity
    00:00 +16°C° 0.4 mm 3 mps 698 mmHg 88%
    01:00 +14°C° 0 mm 3 mps 698 mmHg 88%
    02:00 +14°C° 0 mm 3 mps 698 mmHg 88%
    03:00 +14°C° 0 mm 3 mps 699 mmHg 88%
    04:00 +15°C° 0 mm 2 mps 699 mmHg 86%
    05:00 +15°C° 0 mm 2 mps 699 mmHg 84%
    06:00 +16°C° 0 mm 2 mps 699 mmHg 83%
    07:00 +18°C° 0 mm 2 mps 699 mmHg 74%
    08:00 +21°C° 0 mm 1 mps 699 mmHg 64%
    09:00 +24°C° 0 mm 1 mps 699 mmHg 55%
    10:00 +26°C° 0 mm 1 mps 700 mmHg 48%
    11:00 +27°C° 0 mm 1 mps 700 mmHg 40%
    12:00 +29°C° 0 mm 1 mps 700 mmHg 33%
    13:00 +29°C° 0 mm 2 mps 700 mmHg 31%
    14:00 +30°C° 0 mm 2 mps 700 mmHg 29%
    15:00 +30°C° 0 mm 3 mps 700 mmHg 27%
    16:00 +29°C° 0 mm 2 mps 699 mmHg 33%
    17:00 +29°C° 0 mm 2 mps 699 mmHg 39%
    18:00 +28°C° 0 mm 1 mps 699 mmHg 45%
    19:00 +26°C° 0 mm 1 mps 700 mmHg 47%
    20:00 +24°C° 0 mm 2 mps 700 mmHg 50%
    21:00 +21°C° 0 mm 2 mps 700 mmHg 52%
    22:00 +19°C° 0.2 mm 2 mps 700 mmHg 63%
    23:00 +17°C° 0.2 mm 3 mps 701 mmHg 75%

    5 June, Friday

    Time Temperature Precipitation Wind Pressure Humidity
    00:00 +16°C° 0.2 mm 3 mps 701 mmHg 86%
    01:00 +16°C° 0.3 mm 3 mps 701 mmHg 86%
    02:00 +16°C° 0.3 mm 3 mps 701 mmHg 86%
    03:00 +14°C° 0.3 mm 3 mps 701 mmHg 86%
    04:00 +16°C° 0 mm 3 mps 701 mmHg 85%
    05:00 +16°C° 0 mm 2 mps 702 mmHg 84%
    06:00 +16°C° 0 mm 2 mps 702 mmHg 83%
    07:00 +18°C° 0 mm 2 mps 702 mmHg 74%
    08:00 +20°C° 0 mm 2 mps 702 mmHg 65%
    09:00 +23°C° 0 mm 2 mps 702 mmHg 56%
    10:00 +25°C° 0 mm 3 mps 702 mmHg 50%
    11:00 +26°C° 0 mm 3 mps 703 mmHg 44%
    12:00 +28°C° 0 mm 4 mps 703 mmHg 38%
    13:00 +28°C° 0.1 mm 4 mps 703 mmHg 38%
    14:00 +28°C° 0.1 mm 5 mps 703 mmHg 38%
    15:00 +28°C° 0.1 mm 6 mps 702 mmHg 38%
    16:00 +26°C° 0.1 mm 5 mps 703 mmHg 43%
    17:00 +25°C° 0.1 mm 4 mps 703 mmHg 47%
    18:00 +23°C° 0.1 mm 4 mps 703 mmHg 52%
    19:00 +21°C° 0.1 mm 4 mps 703 mmHg 57%
    20:00 +20°C° 0.1 mm 3 mps 703 mmHg 62%
    21:00 +18°C° 0.1 mm 3 mps 704 mmHg 67%
    22:00 +17°C° 0 mm 3 mps 704 mmHg 69%
    23:00 +17°C° 0 mm 3 mps 704 mmHg 71%

    6 June, Saturday

    Time Temperature Precipitation Wind Pressure Humidity
    00:00 +16°C° 0 mm 3 mps 704 mmHg 73%
    01:00 +15°C° 0 mm 2 mps 703 mmHg 75%
    02:00 +15°C° 0 mm 2 mps 703 mmHg 76%
    03:00 +14°C° 0 mm 2 mps 703 mmHg 78%
    04:00 +15°C° 0 mm 2 mps 703 mmHg 75%
    05:00 +16°C° 0 mm 1 mps 703 mmHg 73%
    06:00 +18°C° 0 mm 1 mps 704 mmHg 71%
    07:00 +20°C° 0 mm 1 mps 704 mmHg 64%
    08:00 +22°C° 0 mm 1 mps 704 mmHg 57%
    09:00 +24°C° 0 mm 1 mps 704 mmHg 51%
    10:00 +25°C° 0.1 mm 1 mps 704 mmHg 49%
    11:00 +26°C° 0.1 mm 2 mps 704 mmHg 48%
    12:00 +27°C° 0.1 mm 2 mps 703 mmHg 46%
    13:00 +27°C° 0 mm 2 mps 703 mmHg 45%
    14:00 +28°C° 0 mm 3 mps 703 mmHg 44%
    15:00 +28°C° 0 mm 3 mps 703 mmHg 42%
    16:00 +28°C° 0.1 mm 2 mps 703 mmHg 47%
    17:00 +27°C° 0.1 mm 2 mps 703 mmHg 51%
    18:00 +26°C° 0.1 mm 1 mps 703 mmHg 56%
    19:00 +24°C° 0.1 mm 1 mps 703 mmHg 60%
    20:00 +23°C° 0.1 mm 1 mps 703 mmHg 64%
    21:00 +21°C° 0.1 mm 1 mps 703 mmHg 68%
    22:00 +20°C° 0 mm 1 mps 703 mmHg 69%
    23:00 +20°C° 0 mm 1 mps 703 mmHg 70%

    7 June, Sunday

    Time Temperature Precipitation Wind Pressure Humidity
    00:00 +19°C° 0 mm 1 mps 704 mmHg 71%
    01:00 +19°C° 0 mm 1 mps 703 mmHg 73%
    02:00 +18°C° 0 mm 1 mps 703 mmHg 75%
    03:00 +18°C° 0 mm 1 mps 703 mmHg 77%
    04:00 +19°C° 0 mm 1 mps 703 mmHg 77%
    05:00 +17°C° 0 mm 0 mps 703 mmHg 76%
    06:00 +18°C° 0 mm 0 mps 703 mmHg 75%
    07:00 +21°C° 0 mm 1 mps 703 mmHg 70%
    08:00 +23°C° 0 mm 1 mps 703 mmHg 65%
    09:00 +24°C° 0 mm 2 mps 703 mmHg 60%
    10:00 +25°C° 0 mm 2 mps 703 mmHg 56%
    11:00 +27°C° 0 mm 2 mps 703 mmHg 52%
    12:00 +28°C° 0 mm 2 mps 703 mmHg 48%
    13:00 +28°C° 0 mm 2 mps 703 mmHg 46%
    14:00 +29°C° 0 mm 2 mps 703 mmHg 43%
    15:00 +29°C° 0 mm 2 mps 703 mmHg 41%
    16:00 +29°C° 0 mm 2 mps 703 mmHg 45%
    17:00 +28°C° 0 mm 2 mps 703 mmHg 48%
    18:00 +27°C° 0 mm 2 mps 703 mmHg 52%
    19:00 +26°C° 0 mm 1 mps 703 mmHg 56%
    20:00 +24°C° 0 mm 1 mps 703 mmHg 61%
    21:00 +22°C° 0 mm 1 mps 703 mmHg 65%
    22:00 +21°C° 0 mm 1 mps 703 mmHg 66%
    23:00 +21°C° 0 mm 1 mps 703 mmHg 67%
    Show more